星链-11561 (STARLINK-11561)

导读 | 豆包AI

STARLINK-11561是美国SpaceX公司星链(Starlink)项目下的一颗低轨卫星,于2025年2月8日发射升空,隶属于美国太空探索技术公司打造的大规模卫星互联网星座组网行列。该卫星旨在为全球提供高速低延迟的宽带互联网服务,补充和扩展星链星座的全球覆盖能力,推动卫星互联网服务的进一步普及。

基本信息
目录编号:
62908
目录名称:
STARLINK-11561
国际标识:
2025-027B
轨道中心:
EARTH
卫星名称:
星链-11561
卫星全名:
星链-11561 (STARLINK-11561)
卫星状态:
在轨 (已飞行400 天)
发射日期:
2025-02-08 UTC
国别 :
美国 (US)
星等 :
--
轨道信息
数据来源 国际轨道数据
星历时间: 2026-03-14T17:15:40+0800
16小时前
查看轨道信息
半长轴: 6733.714km
偏心率: 0.0003093
轨道倾角: 43.000°
近地点辐角 295.519°
升交点赤经 319.096°
平近点角 64.536°
近地点: 353.494km
远地点: 357.66km
周期: 91.652分钟
每日圈数: 15.711616
详细信息
固有亮度:
5
最大亮度:
2.5
卫星平台:
Starlink V1.0
覆盖范围:
全球
运营商:
太空探索技术公司
运营商所在国:
美国
制造商(研发单位):
太空探索技术公司
制造商所在国:
美国
使用方式:
暂无
卫星简介
Starlink 计划是 SpaceX 推出的全球卫星互联网项目,通过发射低轨道卫星,为全球尤其是偏远地区提供高速、低延迟的互联网服务。自 2019 年起,Starlink 已部署数千颗卫星,旨在缩小全球数字鸿沟,推动互联网普及。该项目还为军事、航空等行业提供通信支持,带来广泛经济效益。
2D轨道图
3D轨道图
轨道高度分析图
轨道倾角分析图
轨道综合分析图
查看轨道综合分析图